BEL8AM EBBR-LDDU

Flight info

Callsign BEL8AM
Flight time N/A
Altitude 37000
Route SOPOK Y863 ROPUV L607 EMGOD DCT MOVUM T109 HAREM Z74 LAMPU DCT NOMBO Y161 MAH DCT VAVOR DCT RADIZ DCT GIMIX DCT SABAD DCT SIPAL
Aircraft A20N/M-DE3FGHIJ1LORVWY/HB1G1

Departure

Time N/A
Airport Brussels Airport (EBBR)

Arrival

Time 2026-04-29 16:04
Airport Dubrovnik Ruđer Bošković Airport (LDDU)
Time Latitude Longitude Altitude Speed Heading
2026-04-29 14:55 48.59286 10.79514 37189 ft 465 kts 133°
2026-04-29 14:55 48.57079 10.83024 37193 ft 465 kts 133°
2026-04-29 14:56 48.52647 10.90123 37202 ft 466 kts 133°
2026-04-29 14:56 48.48176 10.97246 37206 ft 466 kts 133°
2026-04-29 14:57 48.43692 11.04235 37205 ft 466 kts 134°
2026-04-29 14:57 48.39188 11.11231 37203 ft 468 kts 134°
2026-04-29 14:58 48.34644 11.18285 37195 ft 468 kts 134°
2026-04-29 14:58 48.30116 11.25324 37194 ft 469 kts 133°
2026-04-29 14:59 48.25938 11.32842 37187 ft 469 kts 125°
2026-04-29 14:59 48.22427 11.41036 37182 ft 468 kts 118°
2026-04-29 15:00 48.19195 11.49494 37176 ft 468 kts 118°
2026-04-29 15:00 48.15945 11.57933 37181 ft 468 kts 118°
2026-04-29 15:01 48.12700 11.66292 37176 ft 469 kts 119°
2026-04-29 15:01 48.09421 11.74731 37170 ft 470 kts 119°
2026-04-29 15:02 48.06142 11.83121 37176 ft 470 kts 119°
2026-04-29 15:02 48.02850 11.91522 37181 ft 470 kts 120°
2026-04-29 15:03 47.99515 11.99992 37179 ft 471 kts 120°
2026-04-29 15:03 47.96114 12.08297 37184 ft 472 kts 124°
2026-04-29 15:04 47.92109 12.16008 37186 ft 472 kts 132°
2026-04-29 15:04 47.87458 12.22905 37187 ft 472 kts 140°
2026-04-29 15:05 47.82410 12.29161 37173 ft 472 kts 141°
2026-04-29 15:05 47.77345 12.35451 37180 ft 473 kts 141°
2026-04-29 15:06 47.72311 12.41732 37158 ft 473 kts 141°
2026-04-29 15:06 47.67300 12.47979 37181 ft 474 kts 141°
2026-04-29 15:07 47.62238 12.54194 37184 ft 474 kts 144°
2026-04-29 15:07 47.56920 12.60004 37166 ft 474 kts 146°
2026-04-29 15:08 47.51642 12.65724 37165 ft 474 kts 146°
2026-04-29 15:08 47.46311 12.71540 37192 ft 475 kts 146°
2026-04-29 15:09 47.40994 12.77320 37172 ft 476 kts 146°
2026-04-29 15:09 47.35646 12.83104 37169 ft 476 kts 147°
2026-04-29 15:10 47.30312 12.88860 37175 ft 476 kts 147°
2026-04-29 15:10 47.24973 12.94599 37168 ft 477 kts 147°
2026-04-29 15:11 47.19584 13.00378 37155 ft 478 kts 147°
2026-04-29 15:11 47.14226 13.06111 37126 ft 479 kts 147°
2026-04-29 15:12 47.08860 13.11840 37101 ft 479 kts 147°
2026-04-29 15:12 47.03466 13.17582 37100 ft 479 kts 147°
2026-04-29 15:13 46.98076 13.23309 37091 ft 478 kts 148°
2026-04-29 15:13 46.92680 13.29017 37110 ft 479 kts 148°
2026-04-29 15:14 46.87320 13.34675 37120 ft 478 kts 148°
2026-04-29 15:14 46.81920 13.40336 37133 ft 478 kts 147°
2026-04-29 15:15 46.76508 13.46017 37135 ft 479 kts 148°
2026-04-29 15:15 46.71111 13.51681 37145 ft 478 kts 147°
2026-04-29 15:16 46.65708 13.57340 37163 ft 478 kts 147°
2026-04-29 15:16 46.60305 13.62990 37155 ft 477 kts 147°
2026-04-29 15:17 46.54968 13.68568 37164 ft 476 kts 148°
2026-04-29 15:17 46.49620 13.74325 37145 ft 477 kts 146°
2026-04-29 15:18 46.44373 13.80170 37137 ft 477 kts 146°
2026-04-29 15:18 46.39120 13.86014 37141 ft 476 kts 146°
2026-04-29 15:19 46.33853 13.91861 37153 ft 477 kts 146°
2026-04-29 15:19 46.28608 13.97669 37141 ft 477 kts 146°
2026-04-29 15:20 46.23351 14.03473 37146 ft 476 kts 146°
2026-04-29 15:20 46.18066 14.09297 37150 ft 477 kts 146°
2026-04-29 15:21 46.12797 14.15087 37143 ft 476 kts 146°
2026-04-29 15:21 46.07564 14.20827 37176 ft 475 kts 146°
2026-04-29 15:22 46.02296 14.26587 37167 ft 476 kts 146°
2026-04-29 15:22 45.97055 14.32306 37164 ft 474 kts 146°
2026-04-29 15:23 45.91791 14.38034 37148 ft 475 kts 146°
2026-04-29 15:23 45.86520 14.43743 37146 ft 475 kts 146°
2026-04-29 15:24 45.81264 14.49409 37137 ft 475 kts 146°
2026-04-29 15:24 45.76005 14.55084 37127 ft 474 kts 146°
2026-04-29 15:25 45.70727 14.60777 37121 ft 474 kts 146°
2026-04-29 15:25 45.65479 14.66425 37116 ft 474 kts 147°
2026-04-29 15:26 45.60215 14.72111 37128 ft 474 kts 147°
2026-04-29 15:26 45.54962 14.77751 37124 ft 473 kts 147°
2026-04-29 15:27 45.49703 14.83372 37129 ft 473 kts 147°
2026-04-29 15:27 45.44427 14.88915 37132 ft 473 kts 149°
2026-04-29 15:28 45.39027 14.94235 37127 ft 473 kts 149°
2026-04-29 15:28 45.33625 14.99539 37122 ft 472 kts 149°
2026-04-29 15:29 45.28255 15.04828 37114 ft 472 kts 149°
2026-04-29 15:30 45.17477 15.15434 37120 ft 470 kts 149°
2026-04-29 15:30 45.12103 15.20704 37137 ft 470 kts 149°
2026-04-29 15:31 45.06738 15.25956 37130 ft 470 kts 149°
2026-04-29 15:31 45.01384 15.31185 37126 ft 470 kts 149°
2026-04-29 15:32 44.95992 15.36439 37125 ft 470 kts 149°
2026-04-29 15:32 44.90660 15.41623 37119 ft 469 kts 149°
2026-04-29 15:33 44.85280 15.46823 37113 ft 469 kts 149°
2026-04-29 15:33 44.79923 15.51984 37103 ft 469 kts 149°
2026-04-29 15:34 44.74532 15.57183 37096 ft 469 kts 149°
2026-04-29 15:34 44.69159 15.62354 37088 ft 468 kts 149°
2026-04-29 15:35 44.63798 15.67514 37087 ft 468 kts 150°
2026-04-29 15:35 44.58432 15.72691 37095 ft 468 kts 150°
2026-04-29 15:36 44.53085 15.77818 37084 ft 467 kts 150°
2026-04-29 15:36 44.47700 15.82962 37080 ft 467 kts 150°
2026-04-29 15:37 44.42326 15.88081 37079 ft 467 kts 150°
2026-04-29 15:37 44.36971 15.93169 37084 ft 467 kts 150°
2026-04-29 15:38 44.31615 15.98246 37071 ft 466 kts 150°
2026-04-29 15:38 44.26263 16.03310 37083 ft 466 kts 150°
2026-04-29 15:39 44.20861 16.08407 37079 ft 466 kts 150°
2026-04-29 15:39 44.15497 16.13456 37066 ft 466 kts 150°
2026-04-29 15:40 44.10113 16.18514 36459 ft 468 kts 150°
2026-04-29 15:40 44.07429 16.21034 36021 ft 465 kts 150°
2026-04-29 15:40 44.04738 16.23557 35579 ft 462 kts 150°
2026-04-29 15:40 44.02090 16.26036 35137 ft 460 kts 150°
2026-04-29 15:41 43.99463 16.28492 34694 ft 458 kts 150°
2026-04-29 15:41 43.96836 16.30944 34173 ft 455 kts 150°
2026-04-29 15:41 43.94206 16.33398 33632 ft 453 kts 150°
2026-04-29 15:41 43.91586 16.35837 33092 ft 454 kts 150°
2026-04-29 15:42 43.88980 16.38257 32553 ft 455 kts 149°
2026-04-29 15:42 43.86371 16.40668 32020 ft 456 kts 149°
2026-04-29 15:42 43.83742 16.43097 31485 ft 457 kts 149°
2026-04-29 15:42 43.81101 16.45539 30946 ft 457 kts 149°
2026-04-29 15:43 43.78445 16.47995 30415 ft 458 kts 149°
2026-04-29 15:43 43.75811 16.50432 29887 ft 460 kts 149°
2026-04-29 15:43 43.73148 16.52896 29353 ft 460 kts 149°
2026-04-29 15:43 43.70476 16.55365 28818 ft 461 kts 149°
2026-04-29 15:44 43.67814 16.57823 28289 ft 462 kts 149°
2026-04-29 15:44 43.65133 16.60295 27758 ft 463 kts 149°
2026-04-29 15:44 43.62476 16.62745 27233 ft 460 kts 149°
2026-04-29 15:44 43.59822 16.65188 26700 ft 456 kts 150°
2026-04-29 15:45 43.57192 16.67618 26174 ft 452 kts 149°
2026-04-29 15:45 43.54626 16.69991 25658 ft 448 kts 150°
2026-04-29 15:45 43.52023 16.72391 25131 ft 445 kts 150°
2026-04-29 15:45 43.49479 16.74727 24602 ft 441 kts 150°
2026-04-29 15:46 43.46930 16.77065 24075 ft 437 kts 150°
2026-04-29 15:46 43.44444 16.79342 23639 ft 433 kts 150°
2026-04-29 15:46 43.41938 16.81633 23244 ft 432 kts 150°
2026-04-29 15:46 43.39425 16.83925 22838 ft 430 kts 150°
2026-04-29 15:47 43.36958 16.86174 22456 ft 427 kts 150°
2026-04-29 15:47 43.34504 16.88407 22077 ft 425 kts 150°
2026-04-29 15:47 43.32045 16.90646 21667 ft 421 kts 149°
2026-04-29 15:47 43.29624 16.92848 21288 ft 418 kts 149°
2026-04-29 15:48 43.27200 16.95051 20903 ft 416 kts 149°
2026-04-29 15:48 43.24774 16.97256 20513 ft 413 kts 149°
2026-04-29 15:48 43.22375 16.99432 20136 ft 411 kts 149°
2026-04-29 15:48 43.20007 17.01579 19775 ft 408 kts 149°
2026-04-29 15:49 43.17668 17.03694 19405 ft 405 kts 149°
2026-04-29 15:49 43.15311 17.05872 19008 ft 404 kts 146°
2026-04-29 15:49 43.13230 17.08421 18623 ft 405 kts 135°
2026-04-29 15:49 43.11472 17.11450 18232 ft 404 kts 127°
2026-04-29 15:50 43.09905 17.14578 17872 ft 402 kts 125°
2026-04-29 15:50 43.08353 17.17747 17501 ft 400 kts 125°
2026-04-29 15:50 43.06821 17.20870 17128 ft 397 kts 125°
2026-04-29 15:50 43.05282 17.23983 16760 ft 394 kts 125°
2026-04-29 15:51 43.03751 17.27060 16391 ft 391 kts 125°
2026-04-29 15:51 43.02224 17.30115 16012 ft 388 kts 125°
2026-04-29 15:51 43.00695 17.33167 15623 ft 386 kts 125°
2026-04-29 15:51 42.99185 17.36173 15243 ft 383 kts 125°
2026-04-29 15:52 42.97675 17.39175 14878 ft 381 kts 125°
2026-04-29 15:52 42.96199 17.42107 14516 ft 375 kts 125°
2026-04-29 15:52 42.94743 17.44995 14149 ft 369 kts 125°
2026-04-29 15:52 42.93298 17.47858 13749 ft 363 kts 125°
2026-04-29 15:53 42.91867 17.50690 13370 ft 358 kts 125°
2026-04-29 15:53 42.90468 17.53459 13020 ft 353 kts 125°
2026-04-29 15:53 42.89086 17.56180 12629 ft 348 kts 125°
2026-04-29 15:53 42.87697 17.58895 12250 ft 344 kts 125°
2026-04-29 15:54 42.86351 17.61529 11847 ft 341 kts 125°
2026-04-29 15:54 42.85013 17.64151 11223 ft 334 kts 125°
2026-04-29 15:54 42.83705 17.66726 10617 ft 324 kts 126°
2026-04-29 15:54 42.82455 17.69199 10052 ft 312 kts 126°
2026-04-29 15:55 42.81248 17.71585 9500 ft 302 kts 126°
2026-04-29 15:55 42.80075 17.73898 8925 ft 294 kts 126°
2026-04-29 15:55 42.78926 17.76162 8350 ft 289 kts 126°
2026-04-29 15:55 42.77784 17.78405 7784 ft 286 kts 126°
2026-04-29 15:56 42.76658 17.80614 7199 ft 281 kts 126°
2026-04-29 15:56 42.75580 17.82730 6754 ft 271 kts 127°
2026-04-29 15:56 42.74520 17.84810 6391 ft 264 kts 127°
2026-04-29 15:56 42.73477 17.86850 6026 ft 262 kts 127°
2026-04-29 15:57 42.72295 17.88694 5661 ft 260 kts 138°
2026-04-29 15:57 42.70978 17.90355 5286 ft 257 kts 136°
2026-04-29 15:57 42.69828 17.92207 4908 ft 252 kts 125°
2026-04-29 15:57 42.68965 17.94215 4548 ft 246 kts 118°
2026-04-29 15:58 42.68216 17.96273 4184 ft 241 kts 117°
2026-04-29 15:58 42.67474 17.98297 3808 ft 235 kts 118°
2026-04-29 15:58 42.66733 18.00236 3429 ft 228 kts 118°
2026-04-29 15:58 42.66002 18.02092 3057 ft 220 kts 119°
2026-04-29 15:59 42.65293 18.03869 2804 ft 208 kts 119°
2026-04-29 15:59 42.64615 18.05557 2543 ft 198 kts 120°
2026-04-29 15:59 42.63965 18.07177 2350 ft 191 kts 120°
2026-04-29 15:59 42.63366 18.08674 2251 ft 175 kts 120°
2026-04-29 16:00 42.62814 18.10055 2092 ft 157 kts 120°
2026-04-29 16:00 42.62313 18.11309 1995 ft 147 kts 120°
2026-04-29 16:00 42.61818 18.12548 2011 ft 149 kts 121°
2026-04-29 16:00 42.61320 18.13793 1998 ft 154 kts 120°
2026-04-29 16:01 42.60798 18.15101 1982 ft 158 kts 120°
2026-04-29 16:01 42.60283 18.16398 1858 ft 155 kts 120°
2026-04-29 16:01 42.59792 18.17635 1643 ft 140 kts 121°
2026-04-29 16:01 42.59348 18.18750 1472 ft 133 kts 121°
2026-04-29 16:02 42.58901 18.19871 1311 ft 133 kts 121°
2026-04-29 16:02 42.58463 18.20975 1145 ft 133 kts 121°
2026-04-29 16:02 42.58026 18.22074 971 ft 132 kts 121°
2026-04-29 16:02 42.57589 18.23172 792 ft 132 kts 121°
2026-04-29 16:03 42.57158 18.24269 621 ft 131 kts 121°
2026-04-29 16:03 42.56724 18.25344 519 ft 126 kts 121°
2026-04-29 16:03 42.56362 18.26249 524 ft 85 kts 118°
2026-04-29 16:03 42.56137 18.26817 517 ft 59 kts 119°
2026-04-29 16:04 42.55960 18.27263 507 ft 44 kts 119°
2026-04-29 16:04 42.55807 18.27342 505 ft 17 kts 181°
2026-04-29 16:04 42.55790 18.27223 506 ft 15 kts 297°
2026-04-29 16:04 42.55838 18.27104 509 ft 13 kts 297°
2026-04-29 16:05 42.55879 18.26997 511 ft 12 kts 297°
2026-04-29 16:05 42.55918 18.26900 513 ft 11 kts 298°
2026-04-29 16:05 42.55953 18.26810 515 ft 10 kts 297°
2026-04-29 16:05 42.55985 18.26726 517 ft 9 kts 297°
2026-04-29 16:06 42.56017 18.26649 518 ft 9 kts 300°
2026-04-29 16:06 42.56047 18.26578 519 ft 7 kts 298°
2026-04-29 16:06 42.56070 18.26514 520 ft 7 kts 295°
2026-04-29 16:06 42.56095 18.26448 521 ft 7 kts 300°
2026-04-29 16:07 42.56124 18.26381 521 ft 8 kts 298°
2026-04-29 16:07 42.56136 18.26342 522 ft 3 kts 263°
2026-04-29 16:07 42.56100 18.26312 521 ft 5 kts 208°
2026-04-29 16:07 42.56085 18.26301 521 ft 0 kts 208°